Domov               UVHVVR             MKGP            O straneh              
ZDRAVSTVENO VARSTVO RASTLIN
  MREŽA AGROMET. POSTAJ
 ► PROGNOSTIČNA OBVESTILA
AGROMETEOROLOŠKI PODATKI -
ARSO
OBVLADOVANJE TVEGANJ ZARADI
NEUGODNIH VREMENSKIH RAZMER
  ► NARAVNE NESREČE
  ► SUŠA/MOČA
  ► NAMAKANJE
  ► ŽLED (gozdarstvo)
KARTOGRAFSKI PRIKAZI
SPLETNE POVEZAVE
PROJEKTI IN PUBLIKACIJE

AGROMETEOROLOŠKA MREŽA: VREMENSKE POSTAJE IN FENOLOŠKA OPAZOVANJA

Pregled podatkov za lokacijo Šentilj, meteorološka postaja 24379

Pregled senzorjev na lokaciji

ID Ime Zadnja
vrednost
Datum
zadnje
spremembe
Tip
senzorja
904 Omočenost lista (U) 0 U 17.8.2017 19:00 A730WET
905 Temperatura 2 m ( °C) 28,45 °C 17.8.2017 19:00 Generic -40 - +60 °C
906 Relativna vlaga 2 m (% RH) 44,59 % RH 17.8.2017 19:00 Generic 0 - 100 %
3858 Padavine 0.2 mm (mm) 0 mm 17.8.2017 19:00 Generic 0.2 mm

Pregled podatkov zadnjih 24 ur

Zap.
št.
Datum in čas Šentilj
Omočenost
lista
Padavine
0.2
mm
Relativna
vlaga
2
m
Temperatura
2
m
0 17.8.2017 18:00 0 0 44,59 28,45
1 17.8.2017 17:30 0 0 43,42 28,77
2 17.8.2017 17:00 0 0 41,73 29,5
3 17.8.2017 16:30 0 0 39,61 29,55
4 17.8.2017 16:00 0 0 41 29,26
5 17.8.2017 15:30 0 0 41,61 28,96
6 17.8.2017 15:00 0 0 44,35 28,82
7 17.8.2017 14:30 0 0 47,72 28,67
8 17.8.2017 14:00 0 0 48,42 28,13
9 17.8.2017 13:30 0 0 49,67 27,81
10 17.8.2017 13:00 0 0 50,33 27,33
11 17.8.2017 12:30 0 0 51,82 27,23
12 17.8.2017 12:00 0 0 52,84 26,89
13 17.8.2017 11:30 0 0 53,09 26,35
14 17.8.2017 11:00 0 0 54,02 25,96
15 17.8.2017 10:30 0 0 55,75 25,47
16 17.8.2017 10:00 0 0 59,1 24,64
17 17.8.2017 09:30 0 0 61,71 24,3
18 17.8.2017 09:00 0 0 68,57 22,83
19 17.8.2017 08:30 0 0 70,84 22,17
20 17.8.2017 08:00 1 0 81,47 19,32
21 17.8.2017 07:30 1 0 88,57 17,58
22 17.8.2017 07:00 1 0 91,4 16,8
23 17.8.2017 06:30 1 0 94,95 16
24 17.8.2017 06:00 0 0 95,19 15,58
25 17.8.2017 05:30 0 0 94,6 15,53
26 17.8.2017 05:00 0 0 92,11 15,97
27 17.8.2017 04:30 0 0 87,11 16,85
28 17.8.2017 04:00 0 0 88,72 16,75
29 17.8.2017 03:30 0 0 83,27 17,75
30 17.8.2017 03:00 0 0 79,93 18,24
31 17.8.2017 02:30 0 0 80,56 18,17
32 17.8.2017 02:00 0 0 88,89 16,95
33 17.8.2017 01:30 0 0 84,88 17,46
34 17.8.2017 01:00 0 0 80,71 18,07
35 17.8.2017 00:30 0 0 85,81 17,41
36 17.8.2017 00:00 0 0 86,67 17,51
37 16.8.2017 23:30 0 0 78,97 18,85
38 16.8.2017 23:00 0 0 75,9 19,17
39 16.8.2017 22:30 0 0 74,65 19,22
40 16.8.2017 22:00 0 0 73,33 19,58
41 16.8.2017 21:30 0 0 72,19 19,83
42 16.8.2017 21:00 0 0 74,07 19,98
43 16.8.2017 20:30 8 0 75,16 20,15
44 16.8.2017 20:00 10 0 79,1 20,1
45 16.8.2017 19:30 10 0 77,36 20,66
© 2011 Ministrstvo za kmetijstvo, gozdarstvo in prehrano. Vse pravice pridržane.